Date String (YYYY-MM-DD hh:mm:ss) UTC,Instrument flags,Ambient pressure (hPa),Sample flow (lpm),Bypass flow (lpm),Sample temperature (°C),Ambient temperature (°C),ASC tube jacket temperature (°C),LED temperature (°C),Box temperature (°C),Sample RH (%),Span deviation,Mass concentration (μg/m³),Mass concentration (μg/m³),Mass concentration (μg/m³)
DateTimeUTC,F1_M11,P_M11,Q1_M11,Q2_M11,T1_M11,T2_M11,T3_M11,T4_M11,T5_M11,U1_M11,ZSPAN_M11,X0_M11,X2_M11,X1_M11
2021-10-06 16:00:00,,0827.0,5.00,0.00,30.2,26.6,00.0,39.4,31.4,16.0,0000.8,0016.86,0005.74,0004.24
2021-10-06 16:01:00,,0826.8,4.99,0.00,30.1,26.7,00.0,39.4,31.4,15.9,0002.3,0016.76,0005.80,0004.24
2021-10-06 16:02:00,,0826.8,5.00,0.00,30.0,27.1,00.0,39.3,31.5,15.4,0001.8,0016.89,0005.84,0004.25
2021-10-06 16:03:00,,0826.9,5.00,0.00,30.0,27.5,00.0,39.3,31.5,15.2,0001.2,0016.82,0005.83,0004.24
2021-10-06 16:04:00,,0826.9,5.01,0.00,30.0,27.9,00.0,39.2,31.6,15.3,0001.0,0015.99,0005.82,0004.24
2021-10-06 16:05:00,,0826.9,4.98,0.00,30.0,28.2,00.0,39.2,31.7,15.6,0000.9,0016.43,0005.81,0004.25
2021-10-06 16:06:00,,0827.2,5.01,0.00,30.0,28.4,00.0,39.2,31.8,15.9,0000.9,0016.73,0005.80,0004.26
2021-10-06 16:07:00,,0827.0,5.00,0.00,30.1,28.6,00.0,39.2,31.8,15.9,0001.2,0015.84,0005.76,0004.25
2021-10-06 16:08:00,,0827.0,5.00,0.00,30.1,28.8,00.0,39.2,31.8,16.3,0001.2,0015.58,0005.68,0004.24
2021-10-06 16:09:00,,0827.0,5.00,0.00,30.1,28.9,00.0,39.2,31.9,16.3,0001.6,0015.32,0005.68,0004.26
2021-10-06 16:10:00,,0827.0,5.01,0.00,30.1,29.0,00.0,39.2,31.9,16.6,0001.6,0015.83,0005.72,0004.28
2021-10-06 16:11:00,,0827.1,4.99,0.00,30.2,29.1,00.0,39.2,31.9,16.4,0000.9,0015.65,0005.73,0004.30
2021-10-06 16:12:00,,0827.0,4.99,0.00,30.2,29.1,00.0,39.2,32.0,16.3,0000.2,0014.88,0005.70,0004.29
2021-10-06 16:13:00,,0827.0,5.00,0.00,30.2,29.2,00.0,39.2,32.0,16.4,0000.0,0014.34,0005.64,0004.28
2021-10-06 16:14:00,,0827.0,5.01,0.00,30.2,29.3,00.0,39.2,32.0,16.6,0000.0,0013.98,0005.64,0004.29
2021-10-06 16:15:00,,0826.9,4.99,0.00,30.3,29.2,00.0,39.2,32.0,16.6,0000.7,0014.02,0005.67,0004.30
2021-10-06 16:16:00,,0826.9,5.01,0.00,30.2,27.7,00.0,39.2,31.7,16.8,0000.2,0014.46,0005.68,0004.30
2021-10-06 16:17:00,,0826.9,5.00,0.00,30.0,26.1,00.0,39.2,31.3,16.9,0000.9,0013.99,0005.75,0004.33
2021-10-06 16:18:00,,0826.9,5.01,0.00,29.9,26.3,00.0,39.2,31.2,16.9,0000.8,0014.38,0005.77,0004.33
2021-10-06 16:19:00,,0826.9,5.00,0.00,29.9,26.7,00.0,39.1,31.3,16.8,0000.3,0014.60,0005.80,0004.34
2021-10-06 16:20:00,,0826.9,4.99,0.00,29.8,27.1,00.0,39.1,31.3,17.1,0000.1,0014.53,0005.78,0004.34
2021-10-06 16:21:00,,0826.9,5.00,0.00,29.8,27.5,00.0,39.0,31.4,17.3,0001.5,0013.90,0005.76,0004.34
2021-10-06 16:22:00,,0826.9,5.00,0.00,29.8,27.9,00.0,39.0,31.5,17.1,0001.9,0013.74,0005.75,0004.34
2021-10-06 16:23:00,,0826.9,5.01,0.00,29.8,28.1,00.0,39.0,31.5,17.0,0002.1,0013.67,0005.72,0004.35
2021-10-06 16:24:00,,0827.0,4.99,0.00,29.8,28.3,00.0,39.0,31.6,17.0,0002.2,0013.51,0005.78,0004.37
2021-10-06 16:25:00,,0827.0,5.00,0.00,29.9,28.5,00.0,39.0,31.7,17.0,0001.4,0014.17,0005.84,0004.38
2021-10-06 16:26:00,,0827.2,5.01,0.00,29.9,28.7,00.0,39.0,31.7,16.9,0000.0,0014.24,0005.81,0004.37
2021-10-06 16:27:00,,0827.2,5.00,0.00,29.9,28.8,00.0,39.0,31.7,16.6,0000.0,0014.26,0005.76,0004.36
2021-10-06 16:28:00,,0827.3,4.99,0.00,30.0,28.9,00.0,39.0,31.7,16.7,0000.0,0014.88,0005.73,0004.35
2021-10-06 16:29:00,,0827.1,5.00,0.00,30.0,29.0,00.0,39.0,31.8,16.9,0000.0,0015.20,0005.72,0004.33
2021-10-06 16:30:00,,0827.0,5.00,0.00,30.0,29.0,00.0,39.0,31.8,16.4,0000.0,0015.18,0005.72,0004.34
2021-10-06 16:31:00,,0827.0,5.00,0.00,30.1,29.1,00.0,39.0,31.9,16.4,0000.0,0015.62,0005.72,0004.34
2021-10-06 16:32:00,,0827.0,4.99,0.00,30.1,29.1,00.0,39.1,31.9,16.5,0000.0,0016.59,0005.79,0004.35
2021-10-06 16:33:00,,0826.9,5.00,0.00,30.1,29.2,00.0,39.1,32.0,16.7,0000.0,0016.54,0005.80,0004.36
2021-10-06 16:34:00,,0827.3,5.01,0.00,30.2,29.3,00.0,39.1,32.0,16.6,0000.0,0016.67,0005.82,0004.36
2021-10-06 16:35:00,,0827.0,5.01,0.00,30.2,29.3,00.0,39.1,32.0,16.8,0000.0,0016.80,0005.81,0004.35
2021-10-06 16:36:00,,0826.9,5.01,0.00,30.2,29.1,00.0,39.2,32.0,16.8,0000.0,0016.72,0005.78,0004.34
2021-10-06 16:37:00,,0826.9,5.00,0.00,30.1,27.4,00.0,39.1,31.5,16.8,0000.0,0017.14,0005.81,0004.36
2021-10-06 16:38:00,,0827.2,5.00,0.00,29.9,26.2,00.0,39.1,31.2,17.0,0000.0,0016.48,0005.84,0004.38
2021-10-06 16:39:00,,0826.8,4.99,0.00,29.9,26.5,00.0,39.1,31.2,16.9,0000.1,0015.41,0005.87,0004.38
2021-10-06 16:40:00,,0826.8,5.00,0.00,29.8,26.9,00.0,39.0,31.3,17.0,0000.1,0015.38,0005.91,0004.39
2021-10-06 16:41:00,,0826.8,5.01,0.00,29.8,27.3,00.0,39.0,31.4,17.0,0000.4,0015.71,0005.92,0004.39
2021-10-06 16:42:00,,0826.8,5.00,0.00,29.8,27.7,00.0,39.0,31.4,17.1,0000.0,0016.11,0005.99,0004.40
2021-10-06 16:43:00,,0826.7,5.00,0.00,29.8,28.0,00.0,38.9,31.5,17.2,0001.8,0015.89,0005.91,0004.39
2021-10-06 16:44:00,,0826.9,5.01,0.00,29.8,28.3,00.0,38.9,31.6,16.8,0002.1,0016.65,0005.88,0004.38
2021-10-06 16:45:00,,0826.7,4.99,0.00,29.9,28.5,00.0,38.9,31.6,16.9,0001.8,0017.06,0005.91,0004.37
2021-10-06 16:46:00,,0826.7,5.01,0.00,29.9,28.6,00.0,38.9,31.7,16.1,0001.6,0017.17,0005.87,0004.36
2021-10-06 16:47:00,,0826.8,4.99,0.00,29.9,28.8,00.0,38.9,31.7,16.0,0000.0,0017.20,0005.81,0004.36
2021-10-06 16:48:00,,0826.8,4.99,0.00,30.0,28.9,00.0,39.0,31.8,16.0,0000.0,0017.27,0005.79,0004.34
2021-10-06 16:49:00,,0826.8,5.01,0.00,30.0,29.0,00.0,39.0,31.8,15.7,0000.0,0017.59,0005.77,0004.31
2021-10-06 16:50:00,,0826.8,5.00,0.00,30.0,29.1,00.0,39.0,31.8,15.8,0000.0,0017.26,0005.71,0004.31
2021-10-06 16:51:00,,0826.8,5.00,0.00,30.1,29.2,00.0,39.0,31.9,15.9,0000.0,0018.17,0005.60,0004.29
2021-10-06 16:52:00,,0827.1,4.99,0.00,30.1,29.2,00.0,39.0,32.0,16.0,0000.0,0018.63,0005.60,0004.29
2021-10-06 16:53:00,,0826.9,5.01,0.00,30.1,29.1,00.0,39.1,32.0,16.1,0000.0,0017.76,0005.52,0004.27
2021-10-06 16:54:00,,0826.8,5.00,0.00,30.1,27.5,00.0,39.1,31.5,16.4,0000.0,0017.14,0005.57,0004.28
2021-10-06 16:55:00,,0826.8,4.99,0.00,29.9,26.2,00.0,39.0,31.1,16.9,0000.0,0017.25,0005.63,0004.28
2021-10-06 16:56:00,,0826.8,5.01,0.00,29.8,26.4,00.0,39.0,31.2,16.9,0000.0,0017.29,0005.66,0004.29
2021-10-06 16:57:00,,0826.7,5.00,0.00,29.7,26.8,00.0,38.9,31.2,16.8,0000.0,0018.43,0005.70,0004.31
2021-10-06 16:58:00,,0826.8,4.99,0.00,29.7,27.3,00.0,38.9,31.3,16.9,0000.0,0018.43,0005.79,0004.35
2021-10-06 16:59:00,,0826.8,5.00,0.00,29.7,27.7,00.0,38.9,31.4,17.0,0000.2,0018.33,0005.79,0004.39
